[[{"header":{"parameterUnit":"m.s-1","parameterCategory":1,"la1":30.2991,"la2":30.254,"lo1":-89.0895,"lo2":-89.0444,"dy":0.0017,"dx":0.0017,"nx":28,"ny":28,"refTime":"2024-06-23T09:00:00:Z","depth":0,"parameterNumber":2,"parameterNumberName":"U-component_of_WINDS"},"data":[0,0,0,0,0,0,0,0,0,0,0,0,0,0,0,0,0,0,0,0,0,0,0,0,0,0,0,0,0,0,0,0,0,0,0,0,0,0,0,0,0,0,0,0,0,0,0,0,0,0,0,0,0,0,0,0,0,0,1.7298,1.7299,0,1.7385,1.7386,1.7387,1.7403,1.7402,1.7402,1.7401,1.749,1.7493,1.7495,0,0,0,0,0,0,0,0,0,0,0,0,0,1.7141,1.7144,1.7298,1.7299,1.73,1.7385,1.7386,1.7388,1.7403,1.7402,1.7402,1.7401,1.7489,1.7492,1.7496,0,0,0,0,0,0,0,0,0,0,0,0,0,1.7217,1.7145,1.7297,1.7318,1.7321,1.7385,1.7386,1.7388,1.7403,1.7402,1.7401,1.74,1.7487,1.7492,1.7496,1.7546,0,0,1.751,1.7512,0,0,0,0,0,0,0,0,1.7213,1.7223,1.7314,1.7317,1.732,1.7382,1.7364,1.7441,1.7404,1.7372,1.7401,1.74,1.7455,1.7462,1.7481,1.755,1.7554,1.7511,1.7513,1.7515,1.7517,0,0,0,0,0,0,0,1.7208,1.7219,1.7332,1.7315,1.7319,1.7322,1.7332,1.7378,1.7418,1.7375,1.7376,1.7386,1.7456,1.7476,1.7483,1.7555,1.751,1.7514,1.7517,1.7519,1.7667,1.7668,0,0,0,0,0,0,1.7199,1.7215,1.7329,1.7335,1.7263,1.7326,1.7336,1.7363,1.7418,1.7425,1.7387,1.7387,1.7469,1.7477,1.7486,1.7546,1.7515,1.7519,1.7522,1.7666,1.7667,1.7669,0,0,0,0,0,0,1.7195,1.7209,1.7326,1.7275,1.729,1.733,1.736,1.7366,1.7386,1.7427,1.7434,1.74,1.7468,1.748,1.753,1.7549,1.7521,1.7526,1.7664,1.7666,1.7668,1.7667,0,0,0,0,0,0,1.7191,1.7208,1.7227,1.7276,1.7293,1.737,1.7361,1.7368,1.7394,1.7394,1.7442,1.7448,1.7468,1.7523,1.7535,1.7555,1.7529,1.7663,1.7665,1.7667,1.7665,1.7668,1.7671,0,0,0,0,0,1.7185,1.7224,1.7228,1.7242,1.7319,1.7371,1.7381,1.7403,1.7395,1.7415,1.7441,1.7447,1.7545,1.7529,1.7541,1.7563,1.7662,1.7665,1.7667,1.7664,1.7668,1.7671,0,0,0,0,0,0,1.7177,1.7231,1.7236,1.7292,1.7326,1.7373,1.7399,1.7407,1.7444,1.7443,1.7469,1.748,1.7528,1.7551,1.7531,1.7613,1.7603,1.7608,1.7596,1.76,1.7603,1.7596,1.7533,0,0,0,0,0,1.7181,1.722,1.7265,1.7309,1.7326,1.7359,1.7383,1.7397,1.7434,1.7449,1.7479,1.7514,1.7553,1.7578,1.7616,1.7669,1.7679,1.769,1.7693,1.7695,1.7699,1.7727,1.7732,1.7678,1.7678,1.7678,0,0,1.7191,1.7225,1.7248,1.7308,1.7337,1.7375,1.7372,1.7413,1.7441,1.7455,1.7504,1.7528,1.7569,1.762,1.7644,1.764,1.7716,1.7699,1.77,1.7703,1.773,1.7735,1.774,1.7679,1.7679,1.7679,0,0,1.7228,1.7259,1.7298,1.7327,1.737,1.7392,1.7401,1.7447,1.7463,1.7513,1.7524,1.7557,1.7624,1.7652,1.7675,1.7721,1.7727,1.7733,1.7747,1.7774,1.7778,1.7782,1.7797,1.7802,1.7737,1.7737,1.7737,0,1.7235,1.7293,1.7317,1.7357,1.7383,1.7398,1.7437,1.7463,1.7517,1.7533,1.7529,1.7611,1.764,1.7697,1.7708,1.7727,1.7738,1.7727,1.7776,1.778,1.7784,1.7798,1.7804,1.7738,1.7738,1.7738,1.7738,0,1.7298,1.7338,1.7365,1.7416,1.7444,1.7484,1.7513,1.7539,1.755,1.7572,1.7622,1.7657,1.7701,1.7716,1.7728,1.7775,1.7771,1.7771,1.7761,1.7789,1.7803,1.7809,1.7738,1.7738,1.7738,1.7738,0,0,1.7332,1.7395,1.7405,1.7427,1.7476,1.7507,1.7546,1.759,1.761,1.7647,1.7679,1.7735,1.7735,1.7761,1.7776,1.78,1.7832,1.7796,1.7798,1.78,1.7883,1.7882,1.7888,1.7836,1.7837,1.7838,1.7879,0,1.7374,1.7445,1.7467,1.7526,1.7563,1.7577,1.7611,1.7644,1.7665,1.7698,1.7722,1.776,1.7758,1.7773,1.7797,1.7822,1.7848,1.782,1.7866,1.7867,1.7853,1.7895,1.7894,1.7931,1.7885,1.7886,1.7886,0,1.7432,1.7468,1.7531,1.7573,1.7589,1.762,1.766,1.7693,1.773,1.7743,1.7772,1.7785,1.7825,1.7814,1.7869,1.785,1.787,1.7885,1.7887,1.7891,1.7877,1.7899,1.7943,1.7948,1.7895,1.7895,1.7894,0,1.7448,1.7513,1.7558,1.7578,1.7629,1.7649,1.7671,1.7707,1.7732,1.7767,1.7783,1.7823,1.7844,1.7875,1.7897,1.7888,1.795,1.7941,1.7961,1.7961,1.7973,1.7972,1.802,1.7988,1.7988,1.7988,1.7988,0,1.7491,1.7528,1.7566,1.7594,1.7636,1.766,1.7701,1.7724,1.7755,1.7787,1.7802,1.7831,1.786,1.7893,1.7912,1.7953,1.7963,1.7975,1.7979,1.7973,1.7971,1.7985,1.7982,1.799,1.7989,1.7989,1.7989,0,1.7516,1.7543,1.7593,1.7637,1.7649,1.7677,1.7714,1.7741,1.7763,1.7803,1.7813,1.7847,1.7886,1.7912,1.7963,1.7975,1.802,1.8025,1.8007,1.8009,1.8027,1.8024,1.8085,1.8093,1.8057,1.8058,1.8058,0,1.7541,1.757,1.7616,1.7639,1.7661,1.7697,1.7721,1.7747,1.7771,1.7815,1.7836,1.7876,1.791,1.7972,1.8,1.8038,1.8043,1.8061,1.8048,1.8041,1.8041,1.8038,1.804,1.8063,1.8063,1.8063,1.8063,0,1.7581,1.7593,1.7628,1.7668,1.7697,1.7729,1.7761,1.7779,1.7809,1.7836,1.7877,1.7902,1.7953,1.7992,1.8033,1.8055,1.8064,1.8067,1.8074,1.8067,1.8055,1.806,1.8011,1.8065,1.8065,1.8065,1.8065,1.8065,1.7606,1.7632,1.7668,1.7706,1.7733,1.7763,1.779,1.7814,1.7848,1.7892,1.7905,1.7946,1.7981,1.8036,1.8059,1.8091,1.8089,1.8099,1.8101,1.8102,1.8101,1.8051,1.8099,1.8099,1.8099,1.8099,1.8099,0,1.7646,1.767,1.7705,1.7749,1.7779,1.7785,1.7821,1.7845,1.7881,1.7913,1.7946,1.7991,1.8029,1.806,1.8099,1.8118,1.8123,1.8128,1.8126,1.813,1.8102,1.8092,1.8123,1.8123,1.8123,1.8123,1.8123,1.8123,1.767,1.7713,1.7729,1.7785,1.7809,1.785,1.7869,1.7896,1.7921,1.7971,1.8003,1.8023,1.8054,1.8095,1.813,1.8138,1.8151,1.8154,1.8163,1.8135,1.8132,1.813,1.812,1.8157,1.8157,1.8188,1.8188,1.8189]},{"header":{"parameterUnit":"m.s-1","parameterCategory":1,"la1":30.2991,"la2":30.254,"lo1":-89.0895,"lo2":-89.0444,"dy":0.0017,"dx":0.0017,"nx":28,"ny":28,"refTime":"2024-06-23T09:00:00:Z","depth":0,"parameterNumber":3,"parameterNumberName":"V-component_of_WINDS"},"data":[0,0,0,0,0,0,0,0,0,0,0,0,0,0,0,0,0,0,0,0,0,0,0,0,0,0,0,0,0,0,0,0,0,0,0,0,0,0,0,0,0,0,0,0,0,0,0,0,0,0,0,0,0,0,0,0,0,0,0.6561,0.6561,0,0.6581,0.6581,0.6581,0.6582,0.6582,0.6582,0.6582,0.6601,0.6602,0.6603,0,0,0,0,0,0,0,0,0,0,0,0,0,0.6524,0.6524,0.6561,0.6561,0.6562,0.6581,0.6581,0.6581,0.6583,0.6582,0.6582,0.6582,0.6601,0.6602,0.6603,0,0,0,0,0,0,0,0,0,0,0,0,0,0.6541,0.6525,0.6561,0.6565,0.6565,0.658,0.6581,0.6581,0.6583,0.6582,0.6582,0.6582,0.6601,0.6602,0.6603,0.6616,0,0,0.6606,0.6607,0,0,0,0,0,0,0,0,0.654,0.6543,0.6564,0.6564,0.6565,0.6579,0.6575,0.6593,0.6583,0.6576,0.6582,0.6581,0.6594,0.6596,0.66,0.6617,0.6618,0.6606,0.6607,0.6608,0.6608,0,0,0,0,0,0,0,0.6539,0.6542,0.6569,0.6564,0.6565,0.6565,0.6567,0.6578,0.6587,0.6576,0.6577,0.6579,0.6594,0.6599,0.6601,0.6618,0.6606,0.6607,0.6608,0.6608,0.6645,0.6645,0,0,0,0,0,0,0.6537,0.6541,0.6568,0.6569,0.6552,0.6566,0.6568,0.6575,0.6586,0.6588,0.6579,0.6579,0.6597,0.6599,0.6601,0.6616,0.6608,0.6609,0.6609,0.6644,0.6645,0.6645,0,0,0,0,0,0,0.6536,0.654,0.6567,0.6555,0.6559,0.6567,0.6574,0.6575,0.658,0.6588,0.659,0.6583,0.6597,0.66,0.6612,0.6617,0.6609,0.661,0.6644,0.6644,0.6645,0.6647,0,0,0,0,0,0,0.6535,0.6539,0.6545,0.6555,0.6559,0.6578,0.6574,0.6576,0.6582,0.6582,0.6592,0.6593,0.6597,0.661,0.6613,0.6618,0.6611,0.6644,0.6644,0.6645,0.6646,0.6647,0.6648,0,0,0,0,0,0.6534,0.6545,0.6545,0.6549,0.6566,0.6579,0.6581,0.6585,0.6582,0.6587,0.6593,0.6593,0.6616,0.6612,0.6615,0.662,0.6643,0.6644,0.6645,0.6646,0.6647,0.6648,0,0,0,0,0,0,0.6536,0.6547,0.6547,0.6562,0.6569,0.6579,0.6586,0.6587,0.6595,0.6595,0.6599,0.6601,0.6613,0.6618,0.6613,0.6632,0.6629,0.663,0.6629,0.663,0.6631,0.663,0.6612,0,0,0,0,0,0.6538,0.6547,0.6556,0.6568,0.6572,0.6578,0.6584,0.6586,0.6594,0.6597,0.6603,0.6611,0.6619,0.6625,0.6634,0.6647,0.6648,0.6652,0.6653,0.6654,0.6655,0.6661,0.6662,0.6647,0.6647,0.6647,0,0,0.6543,0.655,0.6555,0.6569,0.6575,0.6584,0.6581,0.6591,0.6597,0.6599,0.661,0.6615,0.6623,0.6636,0.6641,0.664,0.6659,0.6654,0.6655,0.6656,0.6661,0.6663,0.6664,0.6648,0.6648,0.6648,0,0,0.6556,0.6562,0.6572,0.6578,0.6587,0.6591,0.6593,0.6602,0.6605,0.6617,0.6617,0.6625,0.664,0.6645,0.665,0.6662,0.6663,0.6665,0.667,0.6675,0.6676,0.6678,0.6681,0.6682,0.6666,0.6666,0.6666,0,0.656,0.6574,0.6578,0.6587,0.6592,0.6593,0.6603,0.6608,0.6619,0.6623,0.6621,0.6639,0.6644,0.6657,0.666,0.6664,0.6666,0.6664,0.6676,0.6677,0.6678,0.6682,0.6683,0.6666,0.6666,0.6666,0.6666,0,0.6579,0.6588,0.6595,0.6605,0.6611,0.6621,0.6625,0.6631,0.6632,0.6635,0.6646,0.6653,0.6662,0.6665,0.6667,0.6678,0.6676,0.6675,0.6672,0.668,0.6683,0.6684,0.6666,0.6666,0.6666,0.6666,0,0,0.6595,0.6605,0.6608,0.6612,0.6621,0.6628,0.6636,0.6645,0.6649,0.6656,0.6663,0.6675,0.6673,0.6678,0.668,0.6685,0.6693,0.6683,0.6684,0.6685,0.6704,0.6705,0.6707,0.6693,0.6693,0.6694,0.6704,0,0.6609,0.6625,0.6627,0.6641,0.6649,0.6648,0.6656,0.6661,0.6664,0.6671,0.6674,0.6682,0.668,0.6683,0.6688,0.6691,0.6697,0.6691,0.6699,0.6699,0.6697,0.6709,0.671,0.6719,0.6705,0.6705,0.6705,0,0.6627,0.6634,0.6648,0.6654,0.6657,0.6664,0.6671,0.6678,0.6683,0.6685,0.669,0.6691,0.6699,0.6695,0.6705,0.6701,0.6704,0.6706,0.6706,0.6708,0.6703,0.671,0.6722,0.6723,0.6708,0.6707,0.6707,0,0.6636,0.6649,0.6659,0.6662,0.667,0.6674,0.6677,0.6683,0.6687,0.6693,0.6696,0.6703,0.6706,0.6711,0.6713,0.671,0.6723,0.672,0.6724,0.6724,0.6728,0.6727,0.674,0.673,0.673,0.673,0.673,0,0.6651,0.666,0.6663,0.6669,0.6678,0.668,0.6689,0.6692,0.6696,0.6702,0.6702,0.6708,0.671,0.6716,0.6718,0.6726,0.6727,0.6729,0.6729,0.6729,0.6728,0.6731,0.673,0.673,0.673,0.673,0.673,0,0.6664,0.6666,0.6677,0.6682,0.6684,0.669,0.6694,0.67,0.6702,0.6709,0.6711,0.6715,0.6721,0.6723,0.6732,0.6733,0.6741,0.6741,0.6739,0.674,0.6744,0.6743,0.6759,0.6761,0.6749,0.6749,0.675,0,0.6673,0.668,0.6685,0.6689,0.6692,0.6698,0.6702,0.6704,0.6708,0.6714,0.6718,0.6724,0.673,0.674,0.6743,0.6748,0.6748,0.6753,0.6749,0.6748,0.6748,0.6747,0.6747,0.6754,0.6754,0.6755,0.6755,0,0.6689,0.6689,0.6695,0.6701,0.6706,0.671,0.6715,0.6718,0.672,0.6724,0.6731,0.6734,0.6742,0.6748,0.6753,0.6756,0.6755,0.6756,0.6757,0.6757,0.6755,0.6755,0.6741,0.6756,0.6755,0.6755,0.6755,0.6755,0.67,0.6705,0.6709,0.6715,0.6718,0.6722,0.6727,0.6729,0.6734,0.674,0.6741,0.6747,0.6751,0.6758,0.6761,0.6765,0.6764,0.6766,0.6767,0.6767,0.6767,0.6754,0.6767,0.6767,0.6766,0.6766,0.6766,0,0.6715,0.6717,0.6723,0.6729,0.6733,0.6731,0.6736,0.6739,0.6745,0.6748,0.6753,0.6759,0.6765,0.6767,0.6772,0.6775,0.6775,0.6777,0.6776,0.6777,0.6768,0.6767,0.6777,0.6777,0.6777,0.6777,0.6777,0.6777,0.6724,0.6732,0.6732,0.6741,0.6743,0.675,0.6752,0.6755,0.6758,0.6765,0.6769,0.677,0.6773,0.6778,0.6782,0.6783,0.6784,0.6786,0.6786,0.6778,0.6777,0.6776,0.6775,0.6786,0.6786,0.6794,0.6794,0.6794]}]]